Location: Arthez
(43.0833°N, 0.2500°W)
Time: 05:24:04
(UTC+00:00)

NOSS 3-1 (A) - Pass Details

Date: 30 May 2022
Orbit: 711 x 1501 km, 63.4° (Epoch: 21 May)

Event Time Altitude Azimuth Distance (km) Brightness Sun altitude
Rises 21:43:48 0° 325° (NW) 3,823 8.4 -18.0°
Reaches altitude 10° 21:46:33 10° 335° (NNW) 2,985 7.3 -18.3°
Maximum altitude 21:53:08 36° 40° (NE) 1,905 5.1 -18.9°
Enters shadow 22:00:24 11° 102° (ESE) 3,364 5.9 -19.6°
